星链-1735 (STARLINK-1735 )

导读 | 豆包AI

STARLINK-1735是美国太空探索技术公司(SpaceX)星链(Starlink)互联网卫星项目的一员,于2020年10月6日发射。它属于星链第一代低轨卫星,旨在构建全球卫星互联网星座,为全球提供高速低延迟的宽带网络服务,助力偏远地区网络覆盖、移动场景联网等需求。

基本信息
目录编号:
46565
目录名称:
STARLINK-1735
国际标识:
2020-070AK
轨道中心:
EARTH
卫星名称:
星链-1735
卫星全名:
星链-1735 (STARLINK-1735 )
卫星状态:
在轨 (已飞行1985 天)
发射日期:
2020-10-06 UTC
国别 :
美国 (US)
星等 :
--
轨道信息
数据来源 国际轨道数据 AOE轨道数据
星历时间 2026-03-14T08:00:02+0800
11小时前
查看轨道信息
2026-03-11T03:00:00+0800
3天前
查看轨道信息
半长轴 6757.187km 6759.699km
偏心率 0.0003631 0.0003263
轨道倾角 53.042° 53.042°
近地点辐角 194.888° 186.092°
升交点赤经 97.828° 113.523°
平近点角 319.927° 270.385°
近地点 376.596km 379.356km
远地点 381.504km 383.768km
周期 92.132分钟 92.183分钟
每日圈数 15.629818 15.621106
详细信息
固有亮度:
5
最大亮度:
2.5
卫星平台:
Starlink V1.0
覆盖范围:
全球
运营商:
太空探索技术公司
运营商所在国:
美国
制造商(研发单位):
太空探索技术公司
制造商所在国:
美国
使用方式:
暂无
卫星简介
星链(Starlink)计划是由太空探索技术公司(SpaceX)提出的一个巨型低轨卫星互联网星座项目,计划在2019年至2024年间在太空搭建由约1.2万颗卫星组成的“星链”网络,其中1584颗将部署在地球上空550千米处的近地轨道,并从2020年开始工作。该卫星仍在工作。
2D轨道图
3D轨道图
轨道高度分析图
轨道倾角分析图
轨道综合分析图
查看轨道综合分析图